COSMOS 1823 DEB, 39805

Orbit data source: Space-Track

COSMOS 1823 DEB, 39805 is space debris in LEO originally from a launch on Fri, 20 Feb 1987 UTC launched from the Plesetsk Missile And Space Complex (PKMTR). Debris objects in space refer to the collection of defunct objects orbiting the Earth. Examples of debris include non-operational satellites, rocket bodies, and fragments generated from explosions, collisions, or faulty payload assembly.

Loading next visibility...
Identifier
39805, 1987-020ED
Orbit
LEO
Country
Flag of CISCIS
Related business
Manufacturer
Unknown
Mission
Spacecraft
Bus & Motor
Unknown
Mass
Unknown
Launch date (UTC)
1987-02-20 (39 years ago)
Launch vehicle
Unknown
Launch site
Plesetsk Missile And Space Complex (PKMTR)
Object type
Payload
Rocket body
Debris
Shape & HBR
Unknown shape, 0.1 m
Radar Cross Section
Medium (>0.1 m² and <1 m²)

Expand to show TLE details & history
Last TLE update: 2 days ago

TLE from 2 days ago
0 COSMOS 1823 DEB
1 39805U 87020ED  26171.21905434 -.00000016  00000-0  83661-5 0  9994
2 39805  73.5976 346.1576 0022343 220.8950 319.7041 12.42657398546531
Epoch: 2026-06-20T05:15Z
TLE epoch observation values (Epoch: 2026-06-20T05:15:26.294Z)
Latitude
-0.51862°
Longitude
179.01314°
Altitude
1,484.373 km
Speed
7.128 km/s
True Right ascension
11h 05m 14s
True Declination
0° 30' 57"
Sunlit
Object was in daylight at epoch
Visualization orbit readout
Latitude
Unknown
Longitude
Unknown
Altitude
Unknown
Speed
Unknown
Apparent Right ascension
Unknown
Apparent Declination
Unknown
Sunlit
N/A
Visualization observer readout
Local Sidereal Time
03:26:36
Azimuth
Unknown
Elevation
Unknown
Doppler factor
Unknown
Orbital elements
Apogee altitude
1,510.823 km
Perigee altitude
1,475.649 km
Semi-major axis
7,871.373 km
Eccentricity
0.00223
Inclination
73.5976°
RAAN
346.1576°
Arg. of periapsis
220.895°
True anomaly
319.53816°
Mean anomaly
319.7041°
Eccentric anomaly
319.62117°
Mean motion
3.1079 °/min
Orbital period
115.83 mins
BSTAR
0.0000083661
Loading maneuver chart data...
Computing Atmospheric mass density...

Documentation

Showing up to 5 results
|